Theta_e
315 315 320 321 323 322 324 329 332 335 332 324 322 326 322 322 329 329 329 330 332 330 328 332 336 336 337 342 342 343 341 343 346 343 343 339 333 334 332 329 331 334 338 339 340 340 339 338 337 332 327 327 327 325 328 331 332 332 332 332 333 333 333 335 333 333 334 332 331 332 333 334 334 334 334 334 335 334 331 329 328 328 327 327 326 322 317 313 310 311 317 323 327 329 329 329 329
315 315 320 320 323 322 325 334 333 333 330 320 320 325 322 324 328 331 332 330 333 330 331 337 338 338 339 341 340 340 337 337 338 336 335 333 334 334 331 330 333 337 339 339 340 339 337 336 334 329 328 330 329 330 331 331 332 332 331 331 332 332 332 334 334 334 334 333 333 333 334 335 334 334 334 334 334 332 329 328 327 328 329 328 327 324 320 316 312 312 317 322 326 329 329 328 329
315 316 320 321 323 324 332 334 328 330 327 320 325 328 324 328 330 334 334 330 333 334 335 337 340 339 339 342 339 340 338 335 335 332 333 334 335 334 332 332 334 337 338 339 339 338 335 332 331 329 330 331 329 332 331 330 331 331 331 332 332 332 332 334 333 333 334 334 334 332 334 335 335 335 335 335 335 334 331 330 329 329 330 330 327 325 322 318 315 314 318 322 324 328 328 328 329
315 319 321 321 325 330 340 334 332 336 327 323 328 330 332 334 333 333 331 330 332 334 333 334 342 337 338 347 339 340 340 336 335 332 334 335 335 334 333 333 335 338 338 339 339 337 333 330 330 329 331 330 329 332 331 330 331 330 331 332 332 332 332 332 332 333 333 332 332 332 332 333 334 334 335 335 335 334 332 329 327 328 329 329 327 325 323 320 317 315 318 320 323 327 328 328 328
317 321 321 322 327 331 334 329 332 334 323 328 331 331 339 337 333 332 330 330 330 331 330 335 345 337 337 344 338 342 342 338 334 332 335 334 335 334 333 335 336 338 339 339 338 336 332 330 330 329 331 330 328 330 331 331 331 330 330 332 332 332 331 330 331 334 331 329 332 332 331 333 334 334 335 335 334 332 330 327 325 327 328 328 327 325 323 320 318 315 317 319 322 327 327 327 327
320 321 322 322 322 323 332 324 324 330 326 332 335 335 338 333 332 334 330 330 330 330 332 340 346 342 343 340 336 340 338 338 336 332 335 334 335 333 334 336 336 339 339 338 339 336 332 332 331 330 330 330 327 327 330 331 331 330 330 331 331 331 330 330 331 333 331 330 334 334 333 334 334 334 334 334 333 331 328 326 325 327 328 328 326 324 322 320 317 316 316 319 323 327 327 327 326
319 320 326 329 323 324 335 328 328 335 325 327 337 337 334 331 332 334 332 329 328 330 336 342 342 346 347 338 336 336 334 336 335 334 335 335 335 331 333 336 337 339 338 339 338 335 333 333 331 330 332 331 329 329 330 331 331 330 330 329 329 330 330 330 330 332 333 333 335 335 335 335 334 335 334 333 332 331 329 326 326 328 328 327 326 324 321 317 316 316 315 318 321 325 326 327 326
320 321 328 337 333 333 336 328 334 336 319 323 334 332 330 332 332 332 333 330 329 332 335 337 337 347 344 337 340 338 334 335 334 335 334 335 335 331 332 336 337 338 338 338 337 334 333 332 331 331 332 331 331 332 331 331 330 330 329 329 329 331 330 330 330 331 333 333 334 334 334 334 334 334 333 333 332 332 330 327 328 329 328 326 325 323 319 317 316 315 315 317 319 321 323 324 323
319 321 328 334 331 334 341 332 329 326 320 326 329 329 330 330 331 330 331 329 327 330 330 331 333 339 341 342 346 338 334 335 335 334 333 335 335 332 333 336 337 337 338 337 335 334 332 331 331 331 329 329 332 333 331 331 330 329 329 330 331 331 330 331 332 332 332 333 333 334 333 334 334 334 334 332 332 331 330 328 328 328 328 325 324 322 319 319 318 316 316 317 318 319 321 322 322
320 323 328 334 332 330 336 335 327 321 320 325 327 330 331 328 329 327 329 328 326 328 327 334 340 338 342 347 346 336 333 335 334 334 333 334 333 333 333 335 336 337 337 336 334 333 331 331 330 330 326 326 331 332 331 331 330 329 329 330 331 331 330 330 332 332 332 333 332 333 333 333 334 333 333 332 330 329 328 328 326 327 327 323 323 321 319 319 317 317 317 317 317 317 320 322 322
327 331 336 338 335 327 329 333 330 329 322 321 326 328 329 327 327 325 328 327 325 330 329 337 347 343 344 347 343 336 333 333 334 334 333 334 333 333 333 333 335 336 337 334 333 332 331 330 331 330 326 325 330 333 332 330 330 329 329 330 330 330 330 329 330 331 331 332 331 331 333 333 333 333 333 331 330 328 327 327 326 327 326 323 323 320 317 316 316 316 316 317 317 317 319 321 322
327 336 350 342 332 329 331 333 331 332 324 323 326 325 326 322 323 325 327 326 327 332 331 334 343 345 347 347 342 336 332 332 333 334 334 334 334 333 332 332 335 335 336 333 332 331 329 330 331 331 327 324 327 331 331 330 328 329 330 330 329 329 329 329 329 330 331 332 331 331 332 333 333 333 332 330 330 329 327 325 327 327 324 323 321 318 316 315 315 315 315 316 316 318 319 321 321
333 339 347 335 332 334 331 331 328 326 324 327 326 323 322 320 324 329 330 329 328 331 326 328 339 349 351 344 340 335 333 331 331 334 334 335 333 333 332 331 334 334 335 334 332 331 329 328 330 332 329 325 325 326 328 329 327 329 331 330 330 328 327 328 329 331 331 332 331 331 332 331 332 332 331 330 329 329 327 325 326 326 324 322 320 318 316 315 315 314 315 315 317 319 320 321 321
335 340 341 327 332 338 332 327 323 322 325 329 326 322 321 321 323 326 330 329 328 329 322 327 338 348 347 341 342 337 335 331 329 332 333 334 333 332 332 332 334 334 334 333 332 331 330 328 328 330 329 327 326 325 326 326 327 331 331 330 330 328 327 328 330 331 331 331 331 332 332 331 331 331 330 329 329 329 327 325 323 324 324 322 321 319 316 316 317 316 316 316 318 319 320 321 321
330 342 344 331 330 333 331 328 324 323 326 329 323 321 322 321 321 323 327 329 328 325 321 327 333 333 336 344 351 339 334 332 329 330 330 332 332 332 332 332 333 333 333 332 331 331 330 329 327 328 329 329 327 326 326 326 329 332 331 330 329 329 329 329 331 331 329 330 331 332 332 331 330 330 329 328 328 328 327 325 322 323 324 320 319 318 316 317 317 318 318 318 319 320 321 322 322
335 345 341 331 328 328 330 330 327 324 327 329 320 320 324 320 321 322 322 324 324 324 328 330 326 327 333 344 349 337 334 333 330 330 328 330 333 333 333 333 333 332 332 331 331 330 330 329 328 327 328 329 327 327 327 328 331 331 331 332 330 331 330 329 330 330 329 328 329 331 330 330 330 329 328 327 327 326 326 325 322 323 322 318 317 316 316 317 317 318 319 319 320 321 321 322 322
337 343 339 333 330 330 331 330 327 326 329 329 321 322 327 321 320 320 320 326 328 330 339 335 326 332 337 337 336 333 335 333 332 331 329 330 333 333 334 334 334 333 332 331 331 330 329 328 327 327 328 329 327 327 328 329 330 330 331 331 330 331 329 328 329 329 329 328 328 329 329 330 329 328 328 327 326 326 325 325 322 322 320 316 316 316 317 317 318 318 319 319 320 320 321 322 322
334 339 339 337 335 334 336 334 330 327 327 325 321 325 327 325 322 319 322 331 333 333 339 338 334 334 333 332 331 334 336 333 332 331 330 331 331 332 332 333 333 333 332 331 331 330 330 328 326 327 327 327 326 327 328 328 329 330 330 329 329 328 328 327 327 328 327 327 327 327 327 328 329 328 328 327 326 326 325 324 322 320 318 315 316 316 317 317 318 318 319 319 319 320 321 322 322
334 339 336 338 336 333 334 333 329 325 324 323 322 324 325 325 324 321 324 331 332 331 336 339 342 340 334 333 333 334 334 332 332 331 330 329 330 330 330 331 332 332 332 331 331 329 328 327 326 327 327 326 326 328 329 327 327 329 329 328 327 326 327 326 326 327 326 326 326 327 326 326 328 328 328 327 326 325 324 322 322 320 317 315 317 316 317 317 317 318 319 319 319 321 322 322 323
331 333 333 337 333 331 329 324 324 322 321 324 322 322 322 323 322 320 326 332 330 331 338 340 345 348 340 334 332 333 333 331 330 330 330 329 329 330 329 330 330 331 331 330 330 328 327 324 324 326 326 325 325 327 329 328 326 328 329 328 327 327 326 326 326 325 325 326 326 327 327 326 327 327 327 327 326 324 322 321 321 321 318 317 317 317 317 317 317 318 319 319 320 321 322 322 323
326 326 330 334 329 331 328 319 321 320 319 323 322 322 322 321 320 320 326 331 329 330 334 337 346 353 340 333 333 332 332 331 330 330 329 329 329 329 329 329 330 330 330 329 329 328 326 322 320 323 324 323 325 326 328 328 326 326 329 329 327 326 326 326 326 326 325 326 326 326 326 326 327 327 327 327 326 324 321 320 321 321 319 317 317 317 317 317 318 319 319 320 321 321 322 322 322
326 324 328 331 328 329 327 319 319 318 317 321 322 323 321 319 319 324 329 329 329 328 328 332 341 346 337 333 333 331 332 331 330 330 328 328 328 328 329 329 329 329 329 329 329 328 326 320 316 319 323 323 325 327 327 327 325 325 328 330 327 325 325 326 326 326 325 325 325 325 325 325 325 326 326 326 326 324 322 321 320 320 319 318 317 317 318 318 318 319 320 320 321 321 322 322 322
328 328 328 330 327 324 323 319 318 319 319 321 322 321 319 319 319 322 327 327 329 329 325 329 334 335 334 332 332 332 332 331 330 330 329 329 328 328 329 328 329 329 330 330 329 329 326 320 316 320 323 323 324 327 328 328 325 323 326 329 327 325 325 325 326 325 325 325 325 324 323 323 323 324 325 325 325 324 323 322 320 319 318 317 317 317 318 318 319 319 320 320 320 321 321 322 322
329 331 330 329 326 323 323 320 318 320 320 321 320 317 317 321 320 319 323 324 328 325 315 321 329 330 332 332 332 333 331 331 331 331 330 330 329 329 329 329 329 329 329 329 329 329 326 321 319 323 324 323 324 326 328 329 327 324 325 327 327 326 325 325 325 325 325 325 324 323 322 322 322 322 323 323 322 322 322 322 321 319 318 318 317 317 318 318 319 319 319 319 319 320 322 322 322
327 331 333 328 325 327 324 320 320 320 319 319 317 318 320 322 318 317 322 323 323 320 315 324 331 330 332 333 333 332 331 331 331 331 331 331 330 330 329 329 329 329 329 329 329 329 327 324 323 325 326 324 323 325 328 329 329 327 325 325 326 326 325 325 324 324 324 325 324 321 321 321 321 321 321 321 320 321 321 321 320 319 318 318 317 318 318 318 318 318 318 318 319 320 322 323 322
327 329 334 329 326 329 322 318 321 320 317 317 317 319 320 318 315 317 321 320 321 323 329 336 335 334 334 334 333 331 331 330 330 331 331 331 331 330 330 330 329 329 329 329 329 329 327 327 326 326 326 326 323 323 326 329 329 329 328 326 325 325 325 325 324 323 323 324 324 320 321 322 321 321 320 321 321 321 320 319 318 318 318 317 317 317 317 317 318 318 317 318 318 321 323 323 323
330 327 331 331 327 324 318 317 319 318 316 316 319 321 320 316 314 319 322 321 323 331 341 337 335 338 335 333 333 331 331 331 331 331 331 331 331 331 330 330 329 330 330 329 329 328 328 328 328 327 327 328 326 324 326 328 329 329 329 328 327 327 326 326 326 325 322 322 323 321 322 324 324 323 322 323 324 323 323 321 318 317 317 317 317 317 317 318 318 319 318 318 319 321 323 323 324
330 326 328 329 327 322 316 316 317 315 316 317 318 320 318 316 315 319 322 322 324 334 344 337 336 337 334 334 333 330 331 331 331 331 330 331 331 331 331 330 330 330 330 329 329 328 327 328 328 328 328 328 328 326 325 327 328 328 330 330 329 329 328 327 327 326 322 320 322 321 322 325 326 325 324 325 325 325 326 324 321 318 317 318 318 318 319 320 320 320 320 319 320 322 323 323 324
327 327 329 329 326 326 321 316 317 316 317 318 318 320 319 317 317 317 321 323 322 331 343 339 335 335 334 334 333 332 331 330 331 331 331 331 331 331 331 331 331 330 330 330 329 328 327 327 328 328 328 328 329 328 326 326 327 327 329 330 331 330 329 329 328 325 322 318 319 321 321 323 326 325 325 325 325 326 326 326 325 321 318 318 319 321 322 323 322 322 321 319 321 323 324 324 324
328 326 330 332 326 330 326 316 316 316 316 318 320 323 324 321 319 318 320 321 319 325 336 337 334 334 334 333 333 333 331 330 331 330 331 331 332 332 331 332 331 331 331 330 330 329 328 327 327 328 328 329 329 329 327 326 326 327 328 329 331 331 330 330 328 325 324 320 317 319 321 322 325 326 325 325 326 326 326 327 327 325 322 320 320 322 323 324 324 323 322 320 321 323 324 324 324
331 326 329 334 332 338 334 318 316 317 315 317 321 323 325 324 326 326 321 318 318 320 324 329 332 332 332 333 333 333 331 330 330 331 332 331 331 332 331 332 331 331 331 330 330 330 329 328 327 327 328 329 329 329 328 327 328 328 328 328 329 331 331 330 328 325 325 325 320 318 320 322 324 326 326 326 326 326 327 327 327 327 326 322 321 322 324 325 325 324 322 321 322 323 324 324 324
334 332 333 334 333 340 340 322 316 319 317 316 321 324 325 327 328 329 322 315 316 317 317 321 326 329 330 332 332 333 332 330 330 331 331 331 332 332 332 332 332 331 331 331 330 330 330 329 328 328 328 329 328 328 328 328 329 328 329 329 329 330 331 330 327 325 325 327 325 320 318 321 323 325 327 326 326 327 327 327 327 327 327 325 322 322 323 325 326 325 323 323 323 323 324 324 324
334 335 337 334 332 336 337 326 317 319 319 316 320 324 329 331 325 324 320 314 314 316 315 316 318 323 325 328 330 331 332 331 330 330 330 331 331 331 332 331 331 332 331 331 331 330 330 330 329 328 328 328 328 328 328 328 328 329 329 329 329 330 330 329 326 325 325 326 327 324 319 319 322 324 326 327 327 327 327 327 327 327 327 326 325 324 324 324 325 326 324 324 324 324 323 324 324
334 334 337 334 333 332 334 333 322 317 319 318 319 321 325 328 325 324 321 315 315 316 315 315 315 317 319 322 326 328 330 331 330 329 330 331 331 332 332 331 331 331 331 331 331 331 330 330 329 329 329 328 328 328 328 328 328 328 329 329 330 330 329 329 327 326 326 326 327 326 323 320 320 322 324 325 326 326 327 327 327 327 327 327 326 326 326 325 325 326 326 325 324 324 324 324 324
335 334 337 335 334 333 332 336 326 316 318 319 320 320 319 321 322 322 321 317 317 317 315 315 315 315 315 317 320 323 326 328 328 327 328 330 330 331 331 331 331 331 331 331 331 331 330 331 330 329 329 329 329 329 328 328 327 328 328 329 330 330 329 329 328 327 326 326 326 326 326 323 322 322 323 324 324 325 325 326 327 327 327 327 327 327 327 327 326 326 326 326 325 325 324 324 324
335 333 336 337 335 334 331 333 328 317 317 319 319 320 319 319 319 318 320 319 318 318 315 314 314 314 313 314 315 318 321 323 323 324 326 328 329 330 331 331 331 331 331 331 331 331 330 331 330 330 330 329 329 329 328 328 327 327 327 328 328 329 329 328 328 327 327 326 326 326 326 325 324 323 324 325 325 325 325 325 326 326 327 327 327 327 328 327 326 325 325 325 325 325 325 325 324
334 333 335 336 336 335 330 332 331 319 317 321 318 319 319 319 320 318 318 319 319 320 318 316 315 313 312 313 313 315 317 318 318 320 322 325 326 329 330 330 331 331 331 331 331 331 331 331 330 330 330 329 328 328 328 328 327 327 326 327 327 327 327 327 326 326 326 326 325 325 325 325 324 323 324 326 326 326 326 326 326 326 326 327 327 327 327 328 327 325 324 324 325 325 325 325 325
333 333 334 336 336 335 333 332 330 321 320 325 321 319 320 318 318 319 318 319 319 319 319 318 317 315 313 313 313 313 314 314 315 316 316 320 323 325 328 329 330 330 330 331 331 331 331 331 330 330 330 329 329 328 328 328 328 328 327 327 327 327 326 326 326 325 325 325 326 326 325 325 324 323 323 325 326 327 327 327 327 327 327 326 327 327 327 328 328 327 325 324 324 325 325 325 325
335 334 334 336 335 334 335 330 327 322 323 329 328 323 323 320 319 319 319 319 319 318 318 319 319 318 315 313 313 313 313 314 315 315 313 315 319 322 326 328 329 330 330 330 331 331 331 331 331 330 330 330 329 329 328 329 329 328 328 328 327 327 326 326 326 325 325 325 326 327 326 326 326 324 324 324 325 327 327 327 327 327 327 327 326 326 327 328 328 327 326 325 324 324 325 325 325
337 336 334 337 335 335 338 333 325 323 323 327 329 326 324 322 322 321 319 319 319 319 319 319 319 319 318 316 315 314 314 314 314 314 313 313 315 319 323 326 329 330 330 330 331 331 331 331 331 331 330 330 330 329 329 329 329 329 329 328 327 327 327 327 326 326 325 326 326 327 327 326 326 326 325 324 324 325 327 327 327 328 327 327 327 326 327 327 327 327 327 326 324 324 324 324 325
336 336 335 337 336 335 338 333 324 321 321 322 324 329 329 326 327 325 322 322 321 321 320 320 320 319 320 319 318 316 315 315 315 315 314 312 313 316 320 324 327 329 330 330 330 331 331 331 331 331 331 330 330 330 329 329 328 328 328 327 327 326 326 326 326 326 326 326 326 326 326 326 326 326 326 326 325 324 325 326 327 327 327 327 327 326 326 326 327 326 326 326 325 324 324 324 324
337 336 335 337 337 336 335 327 322 325 329 325 324 334 338 335 334 329 325 326 324 321 321 321 321 320 321 320 318 318 317 316 316 315 314 312 312 315 318 322 325 328 329 330 330 331 331 331 331 331 330 330 330 329 329 328 328 328 327 326 326 326 325 326 326 326 326 326 326 325 326 326 326 327 327 327 326 325 325 324 325 326 326 326 326 326 326 325 325 326 325 326 325 325 324 323 323
337 335 335 337 336 336 334 326 328 335 336 328 323 333 341 338 337 334 329 329 326 323 322 321 320 320 320 320 319 319 318 317 317 316 315 313 312 313 316 319 323 327 328 330 331 331 331 331 331 331 331 331 330 330 329 328 328 328 327 327 327 326 326 326 327 326 326 326 326 325 326 326 326 327 327 327 326 326 326 325 324 324 324 325 325 325 325 325 324 324 324 324 324 324 324 323 323
337 336 336 336 334 334 331 327 333 335 331 327 321 327 337 334 333 336 333 332 330 328 326 323 320 319 319 319 319 319 319 318 318 318 317 315 312 312 314 317 320 324 327 328 330 331 331 331 331 331 331 331 331 330 329 328 328 328 327 327 327 327 327 327 327 326 326 326 326 326 326 326 326 326 327 327 326 326 326 326 325 325 324 324 324 324 324 324 324 323 322 322 323 323 323 323 323
333 336 336 335 334 334 330 326 330 331 330 331 325 323 331 333 331 332 328 329 332 329 328 326 323 321 320 319 319 318 318 318 318 318 318 316 312 312 313 315 318 321 324 327 329 330 331 331 331 331 331 331 331 331 330 329 329 328 327 327 327 328 328 328 327 326 326 326 326 326 326 326 326 326 326 326 326 326 326 326 326 325 325 325 325 325 325 324 324 323 322 322 322 322 323 323 323
329 331 333 332 333 333 332 330 332 333 331 333 329 324 331 335 332 330 326 327 330 328 327 326 324 324 322 320 320 319 318 318 318 318 317 315 313 313 313 314 316 318 321 325 327 329 330 331 331 331 331 331 331 331 331 330 329 329 328 328 328 328 328 327 327 327 326 326 326 327 327 327 327 327 327 327 327 327 326 326 326 326 326 326 325 326 325 325 324 323 323 322 322 322 323 323 324
327 330 332 332 333 332 334 333 332 334 334 333 331 326 330 335 334 330 327 327 329 327 327 327 326 327 325 322 321 320 319 318 318 318 316 313 312 313 313 313 314 317 320 323 326 328 330 330 330 331 331 331 331 331 331 330 330 329 329 329 328 328 328 327 327 327 326 327 327 327 327 327 327 327 327 327 327 327 327 327 327 327 326 326 326 326 326 326 325 325 325 324 323 324 324 324 324
330 334 334 334 333 330 332 332 330 335 336 333 331 326 327 333 336 334 329 328 330 328 328 329 328 329 327 325 323 321 320 319 319 320 318 315 313 312 311 311 313 315 319 322 325 328 329 329 330 330 331 331 331 331 331 331 330 330 330 330 329 329 329 328 327 328 327 327 327 327 327 327 327 327 327 327 327 327 327 327 327 327 327 327 327 327 327 327 326 327 326 326 326 325 325 325 325
331 333 334 336 335 332 335 334 333 337 334 326 324 325 327 330 333 333 330 327 328 327 325 327 329 329 327 325 323 320 320 320 320 320 319 318 317 312 309 310 311 314 318 321 324 326 328 329 329 330 330 330 330 330 330 331 330 331 330 330 330 330 329 329 329 328 328 327 327 327 327 327 326 327 326 326 326 326 326 326 327 327 327 328 328 328 328 328 327 327 327 327 327 326 326 326 326
329 331 334 337 335 336 340 336 334 338 332 323 321 325 329 331 331 329 327 325 325 325 323 324 325 325 324 323 323 322 321 320 319 318 318 318 317 312 308 310 311 312 316 320 323 325 327 328 329 329 330 330 330 330 330 331 330 330 331 330 330 330 329 330 329 329 329 328 328 327 327 327 327 327 327 326 326 326 326 326 326 326 327 327 327 328 328 327 327 327 327 327 327 327 327 327 326
328 330 333 334 334 338 341 339 339 337 329 322 322 328 333 336 331 324 322 324 324 324 323 323 323 321 321 322 322 323 322 320 319 316 316 317 313 309 309 310 310 311 314 318 321 324 326 327 328 329 329 329 330 330 330 330 330 330 330 330 330 330 330 329 329 329 329 328 328 328 327 327 327 327 327 327 327 326 326 326 326 326 326 326 326 326 326 326 326 326 326 326 326 326 326 326 326
329 330 335 334 333 336 334 330 331 333 330 325 324 328 331 331 326 320 319 321 321 321 320 320 322 320 319 320 319 320 320 320 324 323 319 316 310 306 308 310 310 311 312 315 319 323 325 326 327 328 328 329 329 330 330 330 330 330 330 330 330 330 329 329 329 329 328 328 328 328 328 328 327 327 327 327 327 327 327 327 327 326 326 326 326 326 326 326 326 327 327 327 327 326 325 325 325
328 330 334 329 327 333 331 323 323 328 334 331 326 327 330 329 326 323 323 323 322 322 321 319 319 317 317 319 318 318 320 321 327 328 321 315 309 306 307 308 309 311 311 314 316 320 323 325 326 327 328 328 328 329 330 330 330 330 329 330 330 329 329 329 329 328 328 328 328 328 328 328 328 328 327 327 327 327 327 327 327 327 327 327 327 327 327 327 327 327 328 327 327 327 326 325 324
329 330 330 325 325 332 332 329 328 329 332 332 327 326 331 334 332 324 322 325 324 323 323 321 319 318 319 319 316 317 318 320 324 325 319 315 310 305 306 308 310 311 311 313 314 317 320 322 324 326 326 327 328 328 329 329 329 329 329 329 329 329 329 329 329 328 328 328 328 328 328 328 328 328 327 327 327 327 327 327 327 327 328 328 328 328 328 328 328 328 328 328 327 327 327 326 325
327 329 326 327 332 331 330 331 332 330 331 334 328 322 325 330 329 321 319 325 324 321 322 320 319 321 321 321 321 319 318 319 323 324 323 322 313 305 305 308 309 310 311 312 313 314 316 320 322 324 325 326 327 327 328 328 328 329 329 329 329 328 328 328 328 328 328 328 328 328 328 328 328 328 327 327 327 327 327 327 327 327 327 328 328 328 328 328 328 328 328 328 327 327 327 326 326
325 327 326 330 333 331 330 332 334 333 332 334 331 326 326 326 322 320 323 326 323 320 321 320 320 319 319 321 325 325 321 321 324 326 329 331 317 304 305 309 309 310 311 311 311 311 313 316 319 321 323 324 325 326 327 327 328 328 328 328 328 328 328 328 328 328 328 328 328 328 328 328 328 328 328 328 328 328 328 328 328 327 327 327 328 328 328 328 328 328 328 328 327 327 327 327 327
326 329 329 329 329 329 331 331 333 334 332 335 334 331 332 328 320 319 321 322 321 321 321 320 321 320 318 319 322 324 322 320 323 326 330 335 320 304 305 310 309 310 310 309 310 310 311 313 315 318 320 322 323 324 325 326 326 327 327 327 327 327 328 328 328 328 328 328 328 328 328 328 328 328 328 329 329 328 329 328 328 328 327 327 327 327 327 327 327 327 327 326 326 326 326 326 326
326 328 328 328 327 329 333 332 330 330 330 335 334 330 332 329 318 316 319 319 318 319 318 318 322 324 325 323 318 318 319 319 322 324 328 335 323 306 305 308 308 309 309 309 310 309 310 311 312 315 317 319 321 322 323 324 325 325 326 326 327 327 327 327 328 328 328 328 328 328 328 328 328 329 329 329 329 328 328 328 327 327 326 326 326 326 326 326 325 325 324 323 324 325 326 325 326
Wind_Speed
11 10 10 12 10 3 1 4 2 3 4 2 1 1 2 2 2 2 2 0 1 2 3 1 3 4 4 4 6 6 4 4 5 4 3 4 9 24 19 18 23 22 22 19 19 19 17 16 14 13 13 12 11 12 13 14 13 12 12 12 12 12 11 9 9 11 13 13 14 14 14 13 13 14 14 14 15 14 13 12 13 14 16 16 16 16 16 16 15 16 17 18 17 16 16 16 16
12 10 10 10 7 2 1 3 3 3 5 1 2 2 3 2 2 4 4 3 3 2 1 5 7 6 6 7 6 3 1 1 3 3 1 1 13 21 16 20 24 22 22 21 20 20 19 17 15 14 14 12 12 14 14 13 12 12 12 13 13 13 12 10 11 12 12 12 13 14 13 13 13 13 14 14 14 14 13 12 13 14 14 14 15 15 15 15 15 15 16 17 16 16 15 16 17
13 12 10 7 3 3 2 3 2 1 4 2 4 3 2 2 5 6 6 5 7 7 3 5 6 4 5 5 2 1 1 2 2 2 2 9 13 16 18 22 24 22 23 23 22 21 20 18 16 15 14 12 13 14 13 13 12 12 12 12 13 12 12 12 12 12 11 11 12 13 13 13 12 13 14 15 14 14 14 13 13 14 13 12 13 14 14 14 15 15 16 16 16 15 15 16 16
12 11 9 3 2 4 3 3 2 4 3 3 3 5 2 5 7 6 6 5 7 6 3 2 3 1 3 4 1 1 2 2 3 4 4 12 13 17 22 23 23 22 23 24 23 22 20 18 16 15 15 13 14 15 13 14 13 12 13 12 12 12 12 12 12 11 11 11 12 13 14 13 12 12 14 14 14 14 14 13 12 12 12 11 12 13 13 13 14 14 15 15 15 15 14 15 16
10 8 6 3 2 2 3 3 2 4 3 4 2 5 5 6 7 6 5 3 4 4 3 3 2 2 2 3 1 1 3 0 4 6 8 12 14 20 23 23 23 23 24 24 23 22 20 18 17 16 15 13 14 16 14 14 13 13 12 12 12 12 12 13 13 12 11 11 12 14 15 14 12 12 13 13 13 13 12 11 11 12 12 11 11 12 12 12 12 13 13 14 14 14 14 14 15
7 4 6 6 3 1 2 1 0 1 4 5 3 5 5 6 7 6 4 3 4 3 3 2 3 2 1 0 0 3 2 2 5 7 12 13 14 22 23 23 24 24 25 24 23 22 20 18 17 16 15 13 13 15 15 14 13 13 13 12 12 12 13 13 13 12 11 11 10 13 15 14 13 12 12 13 12 11 11 10 11 12 12 11 11 11 11 11 11 12 13 14 14 13 13 13 13
6 2 4 6 2 2 3 2 3 3 4 5 4 5 6 6 5 5 4 3 1 1 2 1 5 6 1 2 1 2 1 2 5 8 15 15 18 23 22 23 23 24 24 23 23 21 20 18 16 15 14 13 13 15 15 14 13 14 14 13 12 12 13 14 14 12 12 12 10 11 14 14 13 13 12 11 10 9 9 10 12 12 11 10 11 11 11 10 11 12 13 13 14 13 13 12 12
5 2 1 4 2 3 4 0 3 3 2 3 4 5 7 7 5 6 4 2 2 0 2 3 3 5 1 1 1 3 3 3 5 10 16 16 21 22 21 23 23 24 24 23 22 21 19 17 16 15 15 14 14 16 15 14 14 14 13 13 13 13 13 14 13 13 13 12 10 10 12 13 12 12 11 10 9 9 10 11 12 11 10 10 10 10 10 10 11 12 12 12 13 13 12 12 12
4 3 1 3 1 2 3 2 3 3 3 4 3 3 3 5 4 4 3 1 1 3 3 5 2 2 2 2 1 4 3 4 7 13 17 18 24 22 21 22 22 24 23 22 22 20 18 17 16 15 14 14 15 15 14 14 13 13 13 13 13 13 13 13 13 13 12 13 12 10 12 12 12 11 10 10 10 10 10 10 10 9 8 8 9 10 10 11 11 12 12 12 12 12 12 12 12
3 4 1 2 2 2 3 2 3 2 3 4 3 4 3 4 4 3 4 2 1 4 2 2 2 3 4 1 2 3 1 8 13 17 19 21 24 21 21 20 21 22 23 22 21 19 18 17 16 15 13 13 15 15 14 14 13 13 13 12 13 13 14 14 13 13 13 13 12 11 12 12 11 11 10 9 9 8 9 9 9 8 7 8 9 10 10 11 11 11 11 11 11 12 13 12 12
2 4 2 3 3 1 1 2 4 3 4 3 2 4 4 4 4 1 2 3 0 3 3 1 4 4 4 0 2 2 3 14 18 21 22 23 23 21 20 19 20 21 21 22 20 19 17 17 16 14 13 13 15 15 14 13 13 13 12 12 12 12 14 15 14 14 13 12 12 11 11 12 11 11 10 9 8 8 9 9 9 8 7 8 9 10 11 11 11 11 11 11 11 12 12 11 11
1 3 4 3 2 2 2 2 5 4 5 3 2 4 3 3 4 3 3 4 1 3 4 2 4 4 4 2 3 2 6 17 19 22 24 24 23 21 19 19 19 19 20 19 19 19 17 18 17 15 13 13 14 15 14 13 14 13 13 13 12 12 13 14 14 14 12 11 12 12 11 11 11 11 10 9 9 9 9 10 10 8 7 8 9 10 11 11 11 11 11 11 11 10 10 10 10
2 1 5 2 3 2 3 2 3 2 4 3 3 2 5 4 4 7 6 3 3 4 4 5 7 5 3 2 3 1 7 16 18 23 25 24 23 21 20 19 18 18 18 18 17 17 16 17 17 16 14 13 13 13 13 13 14 13 13 13 13 12 12 14 14 13 12 11 12 13 12 11 11 11 10 10 9 9 8 9 9 8 8 9 9 10 11 11 11 11 11 11 10 10 10 10 10
3 3 4 2 1 2 4 1 1 3 3 5 3 2 4 3 4 6 7 5 4 4 2 4 8 5 2 1 2 2 9 16 20 24 25 24 23 22 21 19 19 18 17 17 16 16 16 16 17 17 15 13 13 13 13 13 14 14 13 13 14 13 13 14 14 14 14 14 13 13 14 13 12 11 11 10 10 9 7 7 8 8 8 9 9 10 11 11 11 11 11 11 11 10 10 9 9
3 2 4 3 1 0 3 1 2 5 4 5 3 4 4 3 3 4 5 7 5 4 1 2 4 2 3 5 4 7 15 20 21 23 24 24 24 23 21 20 19 19 18 17 17 16 16 17 18 17 17 15 13 13 14 14 15 14 13 13 14 15 15 15 15 16 16 15 14 12 13 14 13 12 11 11 10 9 7 7 8 9 9 10 10 11 11 10 11 11 11 11 11 10 10 9 8
3 3 4 2 1 1 3 1 3 3 5 5 3 4 5 4 2 5 4 5 3 1 1 1 2 0 5 7 6 14 23 23 23 23 23 24 24 23 22 22 22 20 19 19 18 18 17 18 19 19 18 17 15 14 15 15 16 15 14 13 14 16 16 15 15 15 14 15 15 13 12 12 12 12 11 10 10 9 8 7 8 10 10 10 11 11 10 10 10 10 10 11 11 10 9 8 7
3 3 2 1 3 3 3 3 3 4 5 5 3 4 7 3 1 2 2 4 5 1 2 2 1 2 5 4 5 18 28 25 25 23 24 24 24 23 22 23 23 23 22 21 20 19 19 19 20 21 20 18 16 15 16 16 16 17 16 15 15 15 15 14 15 15 14 14 14 14 13 13 13 12 11 11 10 10 9 8 9 10 10 11 12 11 10 9 9 9 10 10 10 9 8 7 6
3 3 2 3 4 4 4 6 6 4 3 5 5 5 8 4 2 2 2 5 3 2 2 3 3 4 2 5 3 24 29 26 27 25 25 24 23 23 22 24 25 25 25 24 22 21 21 20 21 23 22 20 18 17 17 17 17 18 18 17 16 15 15 14 14 15 15 15 14 15 14 14 14 13 12 12 11 10 10 9 9 10 11 12 12 11 10 9 9 9 9 9 9 9 7 6 5
3 3 2 4 4 4 5 6 5 4 3 4 5 5 6 6 5 3 2 2 1 2 2 5 4 4 3 2 14 27 28 27 28 27 25 24 24 24 23 24 26 27 28 27 25 23 22 21 23 25 23 21 20 20 19 18 18 18 19 18 17 16 15 15 15 15 15 15 15 15 15 15 15 14 13 12 11 11 11 10 10 9 10 12 11 11 10 9 9 9 9 9 8 8 6 5 4
2 3 2 5 4 4 4 6 6 6 4 5 5 3 4 4 4 3 4 4 2 5 5 0 3 6 0 6 17 24 25 25 25 25 24 23 24 24 25 27 28 30 30 28 26 24 23 23 24 26 24 22 22 22 21 20 19 19 20 19 17 16 16 16 15 15 15 15 15 15 15 15 15 15 14 13 12 12 12 11 10 9 10 12 11 11 10 9 9 9 9 8 8 7 6 5 5
2 3 4 5 3 3 4 6 6 5 5 6 6 4 2 3 3 3 6 6 4 7 7 7 9 8 6 7 14 21 22 21 21 22 22 23 23 24 26 28 29 29 29 27 26 25 23 23 25 26 24 23 24 23 22 21 20 20 21 20 18 17 17 17 17 16 16 16 16 16 16 16 16 16 16 15 14 13 12 12 11 10 10 12 12 11 10 9 9 9 9 8 8 7 6 6 6
2 3 5 4 4 3 5 5 5 4 4 6 7 6 4 3 2 4 10 7 6 7 8 10 9 10 12 12 15 18 18 19 19 20 22 23 25 25 26 26 25 25 27 28 27 26 24 24 24 25 24 24 25 25 23 22 21 22 22 22 20 18 18 18 18 17 17 17 17 17 17 18 18 18 18 18 16 15 13 12 11 10 11 12 12 12 11 10 9 9 9 9 8 7 6 7 7
3 3 2 4 4 3 3 3 5 5 6 6 6 5 4 5 1 4 9 9 7 6 7 9 8 11 16 16 16 15 14 17 19 22 24 26 27 27 27 27 27 27 29 30 29 27 24 24 25 25 25 26 26 26 24 23 22 23 23 23 21 19 19 19 19 19 18 18 18 18 18 19 19 20 20 19 18 17 15 14 13 12 12 13 13 13 12 11 10 10 10 9 8 7 7 7 8
4 3 3 5 4 4 4 2 3 5 7 7 5 4 5 7 4 3 6 11 8 6 4 7 9 12 15 14 14 15 17 20 23 26 27 28 30 30 29 29 29 29 29 30 29 28 26 25 25 25 26 27 28 27 26 25 23 23 23 24 23 22 20 20 20 19 19 19 19 19 19 20 20 20 20 20 19 18 17 16 14 13 13 13 13 13 12 12 11 11 11 9 9 8 8 8 7
5 6 4 3 3 5 4 2 2 3 4 4 6 5 6 8 5 4 7 12 9 4 1 6 10 11 11 12 14 14 15 19 22 24 26 27 28 27 27 27 27 27 28 30 30 30 28 27 26 26 27 27 28 28 28 27 25 24 24 25 24 23 23 22 20 20 20 20 19 19 19 20 20 20 20 19 18 18 17 16 16 15 14 14 14 14 13 12 12 12 11 10 10 10 10 9 8
7 8 4 3 3 5 3 3 5 3 3 3 6 5 6 4 3 2 8 10 5 2 4 7 9 10 10 10 12 13 13 17 22 24 26 26 25 25 26 27 27 28 31 31 31 31 30 29 28 28 28 27 28 29 29 28 28 27 27 26 25 25 24 23 21 21 21 21 21 20 21 21 20 20 19 18 17 16 15 15 16 16 15 15 15 15 14 13 13 13 13 12 11 12 11 11 10
5 7 5 5 3 3 1 4 6 2 2 4 7 7 5 1 1 4 8 6 5 7 5 6 9 10 11 10 11 14 15 20 25 24 22 22 23 26 28 29 29 31 32 31 32 32 31 31 30 29 28 28 28 29 30 30 29 29 29 27 27 26 25 24 23 23 23 23 23 22 22 22 21 21 20 19 18 16 15 15 16 17 17 17 17 16 15 14 14 14 14 13 13 13 12 12 12
3 7 4 5 3 3 0 3 4 1 2 4 6 5 3 3 2 6 6 4 7 8 6 7 9 10 11 12 11 12 15 21 24 21 20 24 28 30 30 32 33 32 33 34 33 32 32 32 32 30 30 29 30 30 31 31 30 30 30 29 29 28 26 25 25 24 24 25 25 24 25 24 23 22 22 21 19 18 17 16 17 19 19 18 18 17 16 15 14 14 14 14 14 14 13 14 14
2 5 4 5 3 4 4 3 3 4 3 4 5 3 4 5 8 8 6 4 6 8 8 8 10 9 9 11 9 10 14 18 18 20 26 30 32 32 33 35 35 34 35 35 33 33 33 33 33 32 31 31 32 32 32 32 31 30 30 30 29 28 28 27 27 26 25 25 26 27 27 26 26 24 23 22 21 21 19 18 18 20 21 19 18 18 17 16 15 15 14 14 16 16 16 16 16
2 3 2 3 1 4 6 3 3 5 4 4 5 3 7 11 10 7 6 6 7 7 8 8 9 8 8 9 8 9 12 15 18 25 31 31 32 32 34 35 35 35 35 33 34 34 34 34 34 33 33 34 33 33 33 33 32 31 31 30 30 29 29 29 28 27 25 24 27 29 29 28 28 27 25 24 23 23 22 21 21 21 21 21 20 20 19 18 17 17 15 16 18 18 19 18 18
3 1 1 2 3 5 6 3 7 6 3 4 6 4 8 10 8 6 7 7 9 10 9 9 9 8 8 8 9 10 11 17 23 28 30 31 32 32 33 34 34 35 34 33 35 35 35 35 35 35 35 35 35 35 35 34 33 32 32 31 31 30 30 30 29 29 27 24 25 29 31 31 30 29 28 26 25 25 25 24 24 23 22 22 23 22 21 20 20 19 17 18 19 20 20 19 19
2 3 2 2 4 4 6 3 9 8 2 3 6 4 8 9 7 7 6 7 10 11 10 9 9 9 9 8 9 9 11 18 23 26 29 30 31 31 33 34 34 35 35 35 35 34 35 35 36 36 36 37 37 36 36 35 35 33 33 32 32 31 30 30 30 29 28 26 25 27 31 33 32 32 30 28 27 27 27 26 26 25 24 24 24 24 23 23 22 21 20 20 21 22 21 21 20
4 6 4 4 6 4 3 3 7 8 4 3 6 5 5 4 4 4 1 6 8 8 9 9 9 9 9 8 8 9 9 12 16 23 29 30 31 33 34 35 36 36 36 36 35 34 36 36 36 37 37 38 37 37 37 36 36 35 35 33 33 32 31 31 30 30 29 29 28 27 29 33 34 34 33 31 30 29 29 28 28 26 26 26 25 25 26 25 24 24 23 22 23 23 23 22 21
4 4 3 3 5 5 3 3 4 5 4 5 7 7 9 6 6 5 2 5 7 7 9 8 8 8 8 8 7 9 9 10 12 21 30 32 33 35 36 36 36 36 36 36 36 36 36 36 37 38 38 38 37 38 37 37 36 36 35 35 34 34 33 32 31 31 30 30 31 29 28 31 34 35 34 34 33 32 31 31 30 28 28 28 28 27 27 27 26 26 26 25 25 25 25 24 23
8 7 5 2 2 5 7 4 3 6 5 6 6 9 14 10 9 11 5 5 6 8 8 7 8 8 8 8 8 9 10 11 14 22 30 33 34 36 37 37 35 35 36 36 37 36 36 36 37 38 38 38 37 37 37 37 36 36 36 35 35 35 34 34 33 33 33 32 32 32 31 31 33 35 35 35 35 34 34 34 32 31 30 30 30 29 28 28 29 30 30 28 27 27 27 26 25
10 8 6 5 4 6 6 4 4 8 6 6 9 11 13 11 11 14 9 5 6 7 6 6 7 7 8 8 8 9 10 12 18 25 29 30 34 36 37 37 35 35 35 35 35 35 36 36 36 38 39 39 38 37 37 37 36 36 36 36 36 37 37 36 36 36 35 35 35 34 34 33 34 35 36 36 36 36 36 36 35 34 33 32 32 32 31 30 30 31 32 31 30 29 29 28 26
9 7 6 8 8 6 4 4 4 6 6 7 11 12 12 11 13 15 9 5 6 8 8 8 8 8 8 9 9 10 11 13 18 24 28 28 32 34 34 34 33 33 34 34 34 36 38 38 37 39 39 39 38 39 38 38 38 36 36 37 39 39 39 38 38 39 39 38 37 37 37 36 35 36 37 37 37 37 37 37 37 36 36 36 35 34 33 31 30 30 31 31 31 31 30 29 28
9 9 8 8 8 6 4 5 3 4 4 5 7 8 13 13 14 13 8 6 8 10 10 11 11 10 9 9 11 11 10 10 12 17 23 25 28 30 30 30 31 33 35 36 37 39 40 38 39 39 39 39 40 41 40 40 40 39 38 38 39 39 39 40 40 41 41 41 40 40 39 38 37 37 39 40 39 39 39 39 38 38 37 37 37 36 34 33 32 31 31 31 32 32 32 30 27
8 7 7 7 5 1 2 2 1 4 4 4 4 6 11 12 12 12 11 10 9 10 12 13 12 11 10 9 10 11 10 9 10 12 17 22 26 28 28 29 33 36 37 38 39 40 39 39 40 40 39 40 42 41 41 41 41 40 39 38 37 37 37 39 40 40 40 41 41 41 41 40 39 39 39 40 41 40 40 39 39 39 38 37 38 38 36 34 34 33 33 33 32 31 31 30 28
6 6 6 5 4 4 3 3 2 4 3 2 1 5 9 8 8 12 13 11 9 10 12 12 11 11 11 11 10 11 11 11 12 12 13 18 23 25 27 30 33 34 34 36 38 39 39 40 41 41 40 41 42 42 43 42 40 38 38 37 35 34 34 35 36 38 39 40 41 41 42 42 40 40 39 40 41 42 41 40 40 39 38 38 38 38 38 37 36 36 35 34 33 29 28 29 29
3 5 7 4 5 6 4 2 2 1 1 1 3 5 8 6 8 13 10 6 8 11 11 12 12 11 11 10 10 10 11 12 13 14 13 13 18 23 28 31 31 32 34 36 38 40 40 41 42 42 41 41 41 43 43 41 38 36 35 33 31 30 30 30 31 36 39 40 41 42 43 42 41 41 40 39 40 41 41 41 40 39 39 38 38 38 39 38 37 36 35 35 34 31 29 28 26
4 6 7 6 7 6 4 4 3 1 3 2 3 3 8 4 7 13 7 2 8 8 9 14 13 10 10 10 11 11 11 12 12 14 13 12 17 22 26 29 31 33 36 38 39 41 42 42 41 40 40 40 41 41 41 40 38 37 35 33 31 29 28 30 35 38 38 39 42 42 41 40 40 40 40 39 39 39 40 40 40 39 39 38 38 38 39 37 36 35 34 34 34 34 31 27 25
6 5 7 6 7 6 5 6 3 3 4 3 3 5 7 4 6 10 6 5 10 8 9 13 11 9 10 10 12 12 12 12 11 13 12 11 15 18 22 28 32 35 38 38 38 39 40 40 40 40 40 40 40 39 39 39 39 39 38 38 36 33 32 35 39 38 36 37 38 38 38 38 38 39 39 39 38 38 38 38 38 38 39 39 38 38 38 37 36 35 34 33 34 34 32 29 27
4 7 11 6 6 6 5 6 4 4 2 3 1 3 5 8 7 5 3 6 10 10 11 12 9 11 11 11 13 13 13 12 11 13 13 13 15 19 23 29 34 36 37 36 37 38 39 40 40 40 41 41 39 38 38 40 41 41 40 39 37 37 38 39 37 35 34 34 34 35 36 36 36 36 37 37 38 38 38 37 37 37 38 38 37 38 38 37 36 35 33 32 32 32 32 32 30
2 6 10 6 6 5 3 4 2 1 2 3 3 3 3 9 6 2 0 5 11 14 15 13 10 11 12 13 13 12 13 13 12 13 14 14 18 24 28 31 33 36 37 36 38 40 40 41 41 40 40 40 39 38 39 40 42 42 40 38 38 39 41 39 33 31 32 32 33 34 33 34 34 34 35 35 36 36 37 37 36 37 37 37 37 37 37 36 35 34 33 32 32 32 33 33 33
1 7 9 6 5 5 4 3 3 3 2 7 6 5 5 9 7 3 1 4 12 14 12 11 10 10 10 11 12 12 12 12 12 13 14 16 20 25 28 29 30 33 36 37 38 39 39 39 39 38 39 39 39 39 39 40 41 40 39 39 40 41 39 35 32 31 32 31 33 33 32 32 32 32 33 33 33 34 35 36 36 37 37 37 37 37 36 36 35 34 33 33 32 32 33 33 34
6 8 8 7 5 5 4 2 4 2 5 7 9 10 7 8 8 7 5 7 11 11 9 8 7 8 10 10 11 12 11 9 10 10 12 16 21 23 24 25 28 31 32 34 35 36 36 36 37 38 39 39 39 39 39 39 40 40 41 41 42 42 39 33 32 34 33 32 33 32 31 31 31 31 31 31 32 32 32 34 35 35 36 36 36 36 35 35 34 34 34 33 33 33 33 33 34
7 6 6 4 2 3 3 3 3 2 6 5 7 10 9 9 6 5 7 8 8 9 9 8 8 10 12 11 10 10 9 8 8 8 9 12 15 17 18 23 27 28 28 31 33 34 34 35 35 37 38 38 38 38 39 40 40 41 43 43 43 43 39 35 36 38 36 34 34 32 30 30 30 29 29 30 30 30 31 32 33 33 34 34 35 35 35 34 34 34 33 33 34 35 36 34 33
5 6 7 5 1 0 2 1 1 4 5 2 2 6 7 11 6 4 9 9 8 9 9 9 10 11 12 10 9 8 7 6 6 7 9 9 10 11 15 21 24 26 28 31 33 33 34 35 35 36 38 39 38 38 39 41 41 43 44 44 45 43 40 39 40 40 37 35 33 31 30 30 29 29 29 30 30 30 30 31 31 32 32 32 33 33 33 33 33 32 32 32 32 33 34 35 36
9 9 10 8 5 4 7 6 2 4 4 1 2 4 4 8 4 8 15 13 11 11 9 10 10 10 11 9 8 7 6 7 7 8 8 9 9 10 15 20 22 26 29 31 32 34 35 35 36 37 38 38 38 39 40 41 42 44 45 45 45 43 40 40 41 40 37 34 33 32 32 31 30 31 31 31 31 30 30 30 30 31 31 31 31 31 32 33 33 33 32 32 32 32 31 32 36
11 8 6 7 6 6 7 6 4 3 1 1 2 3 4 5 2 6 11 10 9 8 8 9 8 9 9 8 8 8 8 8 7 7 9 9 10 12 16 19 22 25 27 29 31 33 34 35 36 38 37 37 38 39 40 41 43 44 44 44 44 43 41 41 41 39 37 34 34 33 32 32 32 33 33 32 31 29 29 30 29 30 30 31 31 31 32 33 32 33 34 34 33 32 31 31 31
7 4 4 6 5 4 1 2 3 3 2 1 3 3 4 4 6 9 6 6 8 8 8 7 9 10 7 7 9 8 9 9 7 7 9 9 10 12 15 18 20 22 24 27 30 32 34 36 36 38 38 38 38 40 41 42 43 43 43 44 43 42 41 40 39 38 37 35 34 32 32 33 34 34 33 32 30 29 29 29 29 30 30 30 30 31 31 32 32 33 34 34 33 32 31 31 30
5 4 7 4 3 7 4 1 1 4 2 4 3 6 5 3 9 11 10 11 10 10 10 9 10 9 7 8 9 8 9 9 8 7 8 7 8 11 15 17 19 22 25 28 31 34 36 37 37 38 38 37 38 40 42 42 42 42 42 42 41 40 40 40 39 37 36 34 33 33 34 34 34 34 33 31 30 29 29 29 29 30 30 30 30 30 31 32 32 33 33 33 33 32 31 30 29
8 8 8 4 4 3 4 1 3 3 4 4 2 8 5 1 6 6 7 13 14 14 14 10 8 7 8 9 9 9 10 9 8 7 7 7 6 10 15 18 21 24 26 29 32 34 36 37 37 38 38 38 38 39 40 41 41 40 40 40 40 40 39 39 38 37 35 33 34 35 35 35 35 34 32 31 30 30 29 29 30 30 30 30 31 31 31 32 33 33 32 32 32 32 32 31 30
3 7 8 6 3 2 2 3 2 2 5 4 3 5 4 7 8 2 4 11 14 15 13 9 8 8 9 9 9 10 9 8 8 7 6 6 7 11 16 19 22 24 25 27 28 30 33 34 35 36 37 37 38 38 39 39 39 39 39 39 39 39 38 37 37 36 35 35 36 36 36 36 35 33 32 31 30 30 30 30 30 30 30 31 31 31 31 31 32 32 31 31 32 32 33 33 31
4 4 5 3 3 4 4 4 2 3 5 5 4 2 4 9 8 7 10 11 10 11 9 8 11 10 9 9 8 9 8 8 8 6 6 6 7 11 16 19 21 22 24 25 25 26 29 31 33 34 34 34 34 35 36 36 37 38 38 37 37 36 36 36 36 36 36 37 37 37 36 35 34 33 32 31 31 31 30 30 30 30 31 31 30 30 30 30 30 31 31 32 33 32 33 33 30
5 7 7 6 4 2 2 3 2 3 5 5 5 6 8 7 5 12 15 12 11 13 10 9 9 8 8 9 9 8 8 9 7 6 7 6 7 11 15 16 17 17 19 21 23 24 25 27 29 31 32 31 31 32 33 35 35 36 36 36 35 35 35 35 35 35 36 36 36 36 35 34 33 32 31 31 31 30 30 30 29 29 29 29 28 28 28 28 28 29 29 29 29 28 28 27 25
13 12 13 13 10 5 5 7 3 2 4 4 4 9 10 5 5 10 13 13 15 15 11 7 6 7 9 9 9 8 7 8 8 7 7 6 7 10 12 13 13 13 16 18 20 21 22 24 26 28 29 29 30 31 32 33 33 33 34 35 35 35 34 34 34 34 34 35 35 34 33 32 32 31 30 29 29 28 28 28 28 28 27 26 26 26 26 25 26 27 28 27 26 25 26 27 27
Wind_Direction
342 350 342 334 334 342 48 60 61 318 72 93 303 102 227 231 193 178 158 226 17 327 304 32 75 95 111 121 149 162 157 167 167 145 200 281 155 158 162 159 157 155 152 152 153 148 144 146 147 143 138 132 122 118 122 125 123 125 124 127 126 125 129 118 111 113 109 108 112 111 111 115 115 119 120 120 117 113 111 107 105 104 104 104 103 102 102 101 103 108 111 109 100 92 93 97 98
340 345 339 332 340 24 289 75 90 328 56 99 270 157 237 309 143 189 193 182 155 174 31 87 82 75 77 89 109 107 81 213 181 153 216 179 153 161 164 161 159 154 153 153 150 148 150 153 151 144 138 131 121 122 124 127 129 128 128 129 129 129 130 123 115 114 115 117 119 117 116 114 116 122 122 120 115 112 111 108 107 106 105 104 105 105 106 105 105 109 112 114 106 96 95 98 99
339 341 338 328 345 50 42 46 87 61 78 168 262 247 234 148 184 205 207 183 151 155 138 99 76 72 76 74 75 75 202 284 159 110 88 151 157 167 167 164 161 157 155 153 152 152 155 156 152 146 142 137 129 132 132 133 134 130 131 129 130 132 130 126 121 121 121 121 123 127 125 118 121 124 122 119 115 113 112 110 110 109 106 105 108 109 110 111 110 113 114 116 111 100 99 100 98
340 339 338 340 25 37 57 44 120 120 115 195 253 264 227 181 195 204 203 178 154 154 159 94 50 20 91 104 91 84 197 301 148 136 144 167 170 169 166 165 163 158 157 156 158 158 157 157 155 150 148 145 138 142 140 138 140 136 137 135 136 136 134 130 128 127 123 125 127 131 133 131 131 126 123 121 118 116 114 113 112 111 109 107 109 110 112 114 115 119 119 118 114 103 100 102 98
339 346 0 47 73 31 83 72 106 111 184 186 183 258 235 199 190 186 191 204 208 197 195 107 81 297 43 120 121 151 203 333 153 155 159 177 178 168 166 167 164 159 159 160 162 160 159 159 158 155 154 152 147 149 145 142 145 142 141 141 140 136 135 135 135 133 130 135 134 136 139 137 135 129 128 125 122 118 113 111 110 111 111 108 109 111 113 115 118 124 125 123 116 103 101 102 99
340 7 36 55 88 115 101 80 137 232 229 171 159 247 225 201 195 177 171 223 232 200 187 113 133 162 40 310 264 170 184 113 159 173 167 174 177 170 168 168 165 161 161 163 165 163 162 164 163 160 159 158 155 154 149 148 151 148 147 144 143 139 139 141 140 138 136 139 138 141 141 138 138 136 135 130 125 120 114 110 110 111 112 112 111 113 114 117 122 127 130 128 121 107 103 103 101
355 1 31 53 57 32 93 141 205 246 241 174 182 211 192 204 198 156 157 183 172 49 81 135 143 116 85 297 29 184 255 149 164 175 172 170 172 171 171 170 166 163 164 166 167 166 167 169 167 163 162 162 158 155 152 152 153 151 151 149 150 149 146 146 144 142 141 142 138 140 141 140 139 138 137 132 127 122 116 112 112 113 117 119 114 113 114 119 126 131 134 132 129 119 111 107 105
14 15 23 77 37 19 82 92 242 220 222 216 216 196 186 199 177 147 166 159 153 34 89 190 153 95 295 333 100 265 315 221 192 175 173 168 170 171 173 173 168 166 167 168 168 169 171 170 169 166 165 166 159 156 156 155 155 152 153 154 153 153 153 153 150 148 146 146 145 146 146 144 143 140 137 134 130 124 119 115 115 116 122 122 111 111 115 119 126 131 135 134 132 128 123 116 112
31 35 36 79 59 17 44 322 284 230 257 263 215 201 198 184 164 148 155 119 175 153 152 214 206 106 199 33 248 285 351 185 182 171 170 167 169 171 174 175 173 169 169 169 171 173 172 171 172 170 169 168 160 159 161 157 157 155 154 157 156 155 158 158 154 151 150 150 150 151 151 151 149 143 139 136 131 128 124 121 120 119 124 120 106 107 114 116 122 129 134 133 129 128 126 120 113
41 26 110 73 66 15 357 309 283 244 266 270 208 213 202 170 169 162 143 159 164 130 190 216 89 113 146 115 251 309 22 162 164 165 167 167 168 171 175 179 180 174 171 171 173 175 174 173 175 174 173 169 163 165 168 163 160 157 156 161 164 162 160 160 156 155 157 153 155 156 153 153 151 144 139 135 130 130 128 126 125 124 127 118 106 108 115 118 123 128 133 133 128 127 128 122 114
39 353 94 77 62 61 306 279 289 267 277 309 281 241 199 164 142 142 116 151 142 119 189 93 86 124 109 300 257 321 184 165 166 167 167 169 170 173 175 181 183 179 174 173 175 176 175 175 177 178 174 170 168 171 174 171 167 162 163 168 170 166 162 164 160 161 162 153 160 164 156 153 150 145 142 139 134 132 132 132 130 130 133 122 114 116 121 124 128 132 135 136 132 129 129 126 118
97 331 66 90 129 192 207 215 281 288 313 331 257 254 170 151 141 169 169 155 166 143 208 202 142 137 82 314 271 331 172 169 174 171 169 171 172 175 175 178 181 182 179 177 178 177 178 177 178 181 178 175 176 178 178 178 173 167 174 176 171 170 169 169 165 164 162 154 162 166 161 157 152 152 151 148 143 140 140 139 137 137 140 131 125 124 124 128 131 135 139 140 138 134 131 126 120
120 151 88 128 178 170 172 181 277 340 331 275 217 242 133 153 202 186 161 132 153 148 239 207 145 110 93 260 276 307 182 175 172 171 173 173 174 176 176 177 179 184 184 184 184 182 184 182 181 184 185 182 182 184 183 182 176 173 183 182 174 174 173 175 169 162 161 163 169 167 165 164 162 163 160 156 152 151 152 151 152 148 145 140 133 130 130 131 132 134 137 141 141 136 131 125 121
132 155 113 159 150 133 163 128 260 152 259 254 219 195 143 188 219 179 141 125 198 187 245 188 142 113 109 237 296 262 196 179 167 171 176 175 178 178 178 180 182 186 188 192 192 192 193 191 190 189 191 190 188 186 185 183 176 179 188 184 179 174 170 174 168 164 169 175 176 169 168 172 173 172 168 166 163 165 168 169 166 158 154 151 142 140 139 135 133 133 134 138 141 139 135 131 126
138 144 89 123 98 51 187 162 156 158 228 229 186 162 165 243 167 165 167 149 215 236 139 129 144 150 169 172 222 220 190 177 167 170 174 176 179 179 181 183 185 188 191 196 197 201 201 200 199 196 197 197 196 190 186 183 178 185 187 180 179 172 171 176 171 171 178 181 181 176 172 176 177 178 179 178 178 182 184 182 174 165 164 162 152 147 146 141 138 136 135 139 142 143 141 136 128
117 107 68 107 182 242 212 197 115 140 238 223 201 150 156 269 155 171 240 146 158 268 71 189 167 66 175 177 224 196 179 173 168 170 172 174 177 178 182 183 186 190 193 198 200 205 205 205 204 201 201 201 204 195 188 186 183 189 186 178 178 174 177 183 180 180 184 188 190 189 184 182 182 184 186 188 190 192 193 193 185 174 172 167 157 153 152 149 145 142 141 144 146 148 146 141 131
77 89 81 157 181 210 198 183 157 160 242 239 239 178 153 254 279 185 306 81 123 110 31 238 255 14 179 236 275 176 170 169 167 167 167 169 172 174 179 183 186 189 192 199 202 207 208 210 208 204 204 204 207 199 192 191 190 192 190 185 185 185 188 191 191 191 193 195 198 198 197 194 193 194 193 195 195 195 197 199 196 187 178 169 162 160 159 155 153 151 150 151 153 154 153 149 139
76 101 147 205 181 199 185 182 192 168 226 226 208 188 154 171 209 184 37 45 51 78 14 327 321 345 233 275 201 162 164 166 167 165 163 166 170 172 178 184 186 190 193 198 203 208 211 213 209 205 205 206 207 203 198 197 196 195 195 194 194 198 201 202 202 201 202 202 203 204 203 202 202 203 202 202 200 200 204 205 205 201 185 172 168 165 164 164 162 159 157 158 159 160 161 161 156
107 122 166 224 186 196 191 176 190 187 214 200 187 186 171 177 170 148 138 214 352 135 282 344 329 324 9 154 156 158 162 164 167 168 166 169 174 176 179 185 189 193 196 198 202 208 213 214 209 205 206 208 208 205 203 202 201 199 199 200 202 207 210 211 209 207 207 205 205 206 206 207 207 208 208 208 208 208 209 208 208 209 193 177 175 173 173 174 171 168 166 165 165 167 172 178 180
158 132 181 237 207 216 205 180 199 206 189 158 173 183 181 191 159 148 162 181 224 201 215 316 248 252 113 144 155 158 163 165 171 173 173 177 181 182 182 187 193 196 199 201 203 207 213 214 210 207 207 209 208 206 206 206 205 202 202 204 208 211 213 214 212 210 209 208 208 208 208 209 209 211 211 212 214 213 208 205 204 204 196 187 184 182 182 182 180 179 177 178 179 184 191 197 201
158 144 194 230 187 215 219 186 197 200 176 155 149 132 173 212 150 146 146 147 250 244 223 200 204 201 166 163 164 163 166 170 177 179 180 182 186 191 192 193 197 200 201 203 206 209 212 213 210 207 207 208 208 208 208 209 209 206 205 208 211 213 213 213 212 212 211 212 213 212 212 212 212 214 214 216 217 214 207 203 202 200 198 195 193 190 190 189 188 188 188 193 196 202 209 213 216
147 205 209 216 154 197 237 183 172 165 137 130 132 145 177 165 129 158 156 168 230 232 220 208 200 175 165 169 169 168 173 177 182 186 187 188 191 196 199 200 201 202 204 207 211 211 212 212 210 207 206 208 209 210 210 211 212 209 208 209 211 211 212 213 214 215 214 215 217 217 215 214 215 215 217 219 220 218 213 209 207 204 201 198 197 195 195 194 195 197 199 204 207 212 219 225 231
173 240 229 225 185 198 243 170 178 155 121 142 160 169 147 127 203 189 174 203 225 229 218 201 195 175 166 163 166 172 179 185 190 194 194 194 196 198 200 202 203 205 206 211 213 212 212 210 208 207 208 209 210 211 212 214 214 213 210 210 213 212 212 214 216 217 216 216 219 220 218 216 215 215 217 219 221 222 218 217 214 212 206 202 201 199 199 201 201 205 208 213 217 221 226 231 235
172 222 242 228 199 208 227 156 185 161 148 179 160 124 145 166 199 161 195 233 240 269 256 181 167 163 158 158 171 182 185 192 196 199 200 200 202 203 203 205 207 208 208 211 212 212 212 209 207 207 210 211 211 211 213 215 216 215 214 214 217 216 217 218 218 218 217 218 221 223 220 216 215 214 216 218 221 223 222 222 221 219 214 208 207 206 206 208 210 213 216 220 225 226 226 231 234
191 205 217 211 205 226 227 144 193 178 167 162 121 138 200 188 163 145 216 243 247 272 302 144 142 150 163 172 182 187 189 197 201 203 205 207 209 208 210 210 210 210 212 213 213 213 213 210 207 207 210 212 212 212 214 217 217 218 218 219 220 220 222 223 223 222 220 220 222 222 217 213 213 214 215 216 218 221 223 225 226 224 219 215 213 212 212 215 219 221 224 226 229 228 226 233 238
213 189 168 172 236 248 200 182 219 210 192 133 134 206 248 205 158 212 234 238 230 122 112 139 142 156 181 186 188 191 193 199 203 204 207 209 211 212 214 215 214 214 216 217 215 216 215 211 210 209 209 211 213 214 215 218 218 220 220 221 223 223 225 228 229 228 224 221 221 219 214 211 212 212 211 211 214 218 222 226 229 226 221 218 217 218 218 222 225 228 232 232 231 230 230 234 239
201 168 158 185 242 299 136 205 236 231 251 186 171 219 262 307 204 238 249 228 150 114 128 159 158 173 189 191 197 198 200 204 203 203 205 208 211 214 216 215 216 217 218 218 218 218 216 213 213 213 212 212 215 216 218 219 219 220 221 222 224 225 228 230 232 232 229 224 221 218 214 213 213 213 212 213 216 219 223 228 231 229 223 220 221 223 224 228 230 232 237 236 233 233 236 239 239
172 159 167 229 271 326 154 223 242 142 264 200 169 235 292 7 240 219 237 212 152 145 159 177 181 189 194 195 200 200 208 211 205 201 202 207 210 213 215 215 216 217 218 219 219 219 218 217 216 216 216 216 217 219 220 221 222 222 222 223 225 227 229 231 233 234 233 227 222 218 217 217 217 217 217 219 222 223 226 230 233 233 230 226 227 228 230 234 234 236 239 236 234 235 239 242 242
137 138 146 242 289 295 232 207 210 159 202 181 139 293 278 235 230 208 200 181 163 168 175 188 197 199 200 201 203 205 214 212 206 208 210 211 212 212 215 217 216 217 220 220 221 220 220 220 219 218 218 218 219 221 222 223 225 225 224 225 226 228 229 231 234 234 233 230 224 220 219 221 222 222 223 224 227 228 230 233 236 238 238 236 234 234 235 239 239 240 241 237 234 234 240 243 245
139 124 143 203 30 280 236 174 142 159 193 167 147 261 249 234 236 205 188 167 158 186 197 199 202 205 205 204 208 213 215 210 209 214 216 216 216 216 218 220 218 219 221 220 221 222 222 222 221 221 220 221 222 222 223 225 227 228 228 228 229 230 231 232 234 233 233 232 228 223 221 223 224 226 227 228 230 231 232 235 240 243 244 243 240 239 238 241 243 243 244 240 236 235 241 246 249
150 143 215 173 167 259 267 184 147 164 213 150 146 245 254 249 251 225 211 175 169 202 212 207 207 209 208 205 210 217 215 213 216 219 220 220 219 219 221 222 221 221 221 221 222 223 223 223 221 221 221 222 223 223 225 226 229 230 231 231 231 232 233 234 235 234 232 233 233 228 224 223 225 227 228 230 232 232 233 235 240 244 247 247 244 243 242 242 244 245 246 244 241 239 244 251 253
159 182 205 178 191 254 298 230 171 178 212 137 150 227 266 268 261 249 230 184 187 211 215 212 213 211 210 210 212 218 222 220 223 225 225 225 223 223 224 224 223 221 222 222 223 223 223 224 222 222 221 222 223 224 226 228 230 232 233 234 233 233 235 236 236 234 233 234 236 233 228 225 225 227 229 231 233 234 235 237 240 243 247 247 245 244 244 243 244 245 247 245 245 244 247 253 255
220 202 191 177 188 214 290 262 208 189 149 170 200 226 266 276 250 275 311 184 194 219 227 224 221 221 216 214 216 217 225 227 227 229 228 227 225 226 226 226 226 224 223 223 223 223 223 224 224 223 223 223 224 225 226 228 231 232 234 235 235 235 236 237 237 236 235 235 236 237 233 228 226 227 229 231 234 236 237 239 241 243 245 246 246 247 247 247 246 247 248 247 247 248 250 254 255
208 199 201 202 187 183 206 270 255 197 169 204 213 233 242 242 253 285 353 158 181 219 234 234 228 230 224 218 224 222 224 227 227 227 227 226 226 227 227 228 228 226 225 224 223 224 225 225 224 224 225 224 225 226 226 228 231 232 234 235 236 237 238 239 239 238 237 237 236 237 236 233 229 229 230 232 235 238 239 241 243 244 244 246 248 249 250 251 249 248 250 249 248 248 250 252 256
188 191 193 208 189 190 199 223 210 176 206 223 198 235 245 248 269 272 264 157 178 223 229 238 237 232 230 221 221 224 224 230 231 229 227 225 225 226 227 228 228 227 226 225 224 224 225 226 225 226 225 225 226 226 226 227 229 231 231 233 234 236 238 239 240 239 239 238 237 238 239 238 234 231 232 233 236 239 240 242 244 245 245 246 248 250 250 250 249 248 249 250 249 249 251 253 257
183 181 179 180 201 216 204 215 212 173 190 229 210 233 245 247 258 258 253 193 205 244 242 249 249 240 238 227 223 226 226 231 233 232 231 227 226 226 226 226 226 226 226 225 224 223 223 224 224 225 225 225 224 224 224 224 224 225 227 228 230 232 235 237 239 240 240 240 240 240 241 242 240 236 233 235 237 240 241 243 244 246 247 247 247 248 248 248 248 248 248 249 249 250 251 252 255
157 155 183 198 208 231 205 209 241 178 179 233 223 237 252 247 250 253 253 211 221 251 250 247 245 240 239 231 229 227 227 236 237 236 235 231 229 228 226 225 224 224 224 223 222 222 223 222 222 223 224 223 222 221 220 220 219 220 222 224 227 230 232 234 236 238 238 240 240 241 243 245 244 240 236 236 238 240 242 243 245 246 247 247 248 249 250 250 249 249 249 249 248 249 250 251 252
153 167 191 208 213 227 211 205 231 163 176 245 229 245 257 250 253 259 257 225 228 236 238 243 239 236 235 231 234 232 233 242 242 241 239 234 232 229 226 223 221 220 221 220 221 223 223 222 221 223 223 221 221 221 219 220 221 221 222 224 227 229 231 232 234 236 237 238 240 241 243 244 245 243 240 239 239 241 242 243 245 246 247 248 249 251 252 252 250 250 249 248 247 247 249 251 251
169 172 182 209 209 219 270 234 191 154 181 251 239 245 256 254 256 262 254 236 235 230 229 236 236 236 234 228 231 236 239 242 242 243 239 234 232 229 225 221 220 221 221 220 221 222 221 221 222 222 222 221 222 221 221 222 223 224 226 229 231 231 233 235 237 239 239 239 240 241 242 243 244 244 243 242 241 242 242 243 244 246 247 248 249 250 251 251 250 249 248 247 246 246 248 250 249
180 171 178 205 170 152 236 241 177 170 179 197 229 268 267 262 264 263 251 235 238 239 234 236 234 234 236 230 228 230 233 236 240 242 238 233 229 226 222 220 221 220 220 220 219 220 220 220 221 221 221 221 222 222 223 223 224 226 228 231 233 235 237 238 239 240 241 241 241 241 242 243 244 244 244 244 243 243 243 243 244 245 247 248 248 248 248 249 248 247 246 245 244 242 245 248 247
194 193 189 186 155 171 205 181 133 151 274 107 69 321 278 240 241 258 253 214 231 241 237 242 239 232 236 239 237 231 230 231 235 240 237 228 224 222 221 221 220 219 219 220 218 218 219 221 222 221 221 221 221 223 223 222 222 223 225 226 230 233 235 235 236 237 238 238 240 241 242 243 243 244 244 244 244 245 245 245 245 246 247 247 247 248 248 248 248 247 246 245 243 241 243 248 247
215 216 187 156 151 166 161 137 113 92 278 260 114 289 277 235 226 251 259 198 235 238 232 241 241 232 231 237 243 238 235 233 232 239 238 226 222 222 222 221 218 219 220 221 220 220 221 221 222 220 220 221 222 222 221 219 219 219 219 219 221 224 226 228 230 233 234 235 238 240 242 243 243 244 245 245 245 246 246 246 246 246 247 247 247 248 249 248 248 248 247 245 245 244 244 246 247
222 189 153 140 132 136 150 153 153 183 242 279 158 209 266 282 233 241 246 238 250 250 241 245 242 238 231 227 237 236 235 236 234 240 241 230 221 217 221 221 218 220 222 222 221 222 221 221 221 220 220 221 222 221 219 218 217 218 219 220 221 221 224 230 232 234 235 237 240 241 242 244 244 245 245 246 246 247 248 248 247 247 248 248 249 249 250 250 250 250 249 248 248 247 243 242 245
216 150 149 152 114 116 154 160 190 224 262 319 174 174 261 270 249 240 222 240 265 267 256 251 237 235 236 230 234 235 235 235 232 238 238 232 223 216 220 222 221 222 223 222 221 221 222 221 221 221 221 221 221 220 218 217 217 218 220 222 224 226 229 234 236 236 238 240 243 244 244 245 246 247 247 247 248 248 249 249 249 249 249 249 250 250 251 252 253 252 251 250 249 247 243 242 244
222 134 145 145 108 107 118 130 173 318 341 251 218 135 233 261 263 307 176 233 258 258 251 249 237 230 233 235 238 238 239 236 231 235 235 232 226 223 225 225 225 225 223 222 221 222 222 221 221 221 220 220 220 219 219 218 218 219 220 221 225 229 233 236 238 239 240 241 242 244 246 246 247 248 248 249 249 249 250 250 250 250 250 250 250 251 253 253 253 253 252 251 250 248 246 244 244
136 109 101 84 77 75 68 88 106 45 288 230 203 174 219 263 253 214 137 220 242 250 249 246 241 237 234 235 240 239 240 238 235 237 238 238 233 229 230 229 228 227 224 223 222 222 221 220 219 218 219 220 219 219 219 219 218 218 220 222 226 231 233 235 237 239 241 241 242 243 243 245 246 247 249 249 250 250 250 250 251 251 251 251 251 252 253 253 253 253 253 253 251 249 248 245 244
116 99 82 67 46 46 54 46 79 60 263 224 192 185 202 267 250 191 193 209 219 238 251 248 245 250 246 236 234 236 237 237 236 239 243 246 243 237 232 228 228 228 225 223 221 221 220 218 217 217 219 219 218 218 218 219 218 218 221 224 227 231 232 232 234 237 238 238 239 240 241 243 244 246 248 249 249 249 249 250 251 252 252 252 252 252 252 253 253 253 253 253 252 251 250 247 246
128 104 110 105 35 26 35 9 62 202 249 225 189 174 180 241 244 176 216 226 214 226 236 237 232 239 246 242 240 239 237 239 238 239 244 246 245 236 225 223 225 224 221 220 220 219 218 217 216 216 218 218 217 217 216 218 219 219 223 225 228 231 231 230 233 236 236 236 238 239 240 242 243 244 246 246 247 247 249 250 250 251 252 251 251 251 252 252 252 252 252 251 250 250 248 246 246
146 127 144 148 148 145 200 223 146 220 246 287 173 152 185 240 245 216 242 245 236 235 230 229 226 230 241 246 250 251 247 252 246 239 240 238 239 229 217 217 218 217 216 217 216 216 216 217 216 216 217 217 216 216 216 217 219 221 223 225 228 231 231 231 234 237 237 237 238 238 238 239 240 242 242 243 244 245 246 247 248 248 249 249 249 249 249 250 250 249 249 250 251 251 248 244 243
174 166 166 177 172 183 206 197 193 236 237 303 157 150 236 264 261 231 238 240 238 238 235 234 232 234 242 246 253 262 262 256 245 240 240 233 231 224 217 216 213 213 215 215 214 214 214 215 215 216 218 217 215 215 216 217 219 223 224 226 229 230 230 232 234 237 238 238 239 239 239 239 241 243 244 245 246 246 246 247 247 248 248 249 249 249 250 250 251 251 251 252 253 254 255 252 247
188 176 164 198 189 188 208 194 199 219 175 316 203 173 208 219 258 247 238 247 253 251 248 246 246 244 247 257 264 266 266 259 248 242 240 234 229 222 219 218 215 215 214 212 213 213 213 214 215 216 218 217 215 215 216 218 220 224 225 227 229 229 231 233 235 237 238 239 240 240 241 242 245 248 249 251 251 249 249 249 249 249 249 249 250 250 251 252 253 254 255 255 254 256 259 260 260
194 154 160 223 199 151 157 200 188 137 110 252 217 231 223 201 280 280 251 253 255 251 252 247 251 252 251 259 258 255 259 260 253 244 243 241 234 225 220 219 217 216 214 213 214 213 213 215 215 217 219 218 216 216 217 219 222 224 225 227 229 229 231 233 235 237 238 239 241 242 244 247 249 251 252 253 253 252 252 252 252 252 252 251 251 252 252 253 254 253 252 252 253 258 261 263 267
167 172 190 207 120 109 100 260 6 72 201 236 185 244 286 325 283 269 249 257 259 251 246 233 237 244 243 247 246 245 248 250 249 243 244 245 237 228 224 220 217 215 214 215 216 216 216 217 217 218 220 219 218 218 219 220 222 224 225 227 229 229 230 232 234 236 238 239 242 245 248 250 251 252 253 254 255 255 255 255 254 254 254 254 253 253 253 253 253 251 250 251 252 255 258 261 267
154 191 188 128 81 98 106 170 11 46 239 264 213 234 261 293 261 256 236 249 254 252 249 242 237 228 233 244 243 242 242 245 255 253 246 244 230 226 225 222 221 219 218 219 220 220 220 219 219 219 219 219 219 220 221 222 223 224 226 228 229 230 231 233 235 237 239 241 243 246 248 250 251 252 254 256 257 257 257 256 255 254 255 255 254 253 252 251 251 250 251 252 253 254 254 256 257
157 180 164 139 167 207 155 174 189 190 234 281 279 250 243 219 226 222 225 234 239 248 253 254 249 227 227 241 241 244 247 249 258 255 246 239 223 222 223 223 225 223 223 224 223 222 221 221 221 222 222 223 222 222 222 223 224 225 227 229 231 232 232 234 236 238 240 242 245 247 248 250 252 253 255 256 257 257 256 256 255 254 254 254 253 253 253 253 253 252 253 255 255 254 252 251 250
18 117 146 166 196 191 191 190 166 181 226 269 281 289 244 222 194 178 220 235 234 244 248 241 241 232 225 231 230 234 236 235 242 246 246 241 229 227 223 223 227 225 225 226 224 223 222 222 222 223 225 226 224 224 224 225 226 227 229 230 232 233 234 236 238 239 241 243 245 246 248 251 252 254 255 256 256 256 256 256 255 255 254 253 252 252 253 253 253 253 255 256 254 251 250 248 246
152 161 177 198 201 172 190 203 124 142 202 241 261 264 254 239 176 182 211 233 237 237 238 230 233 234 230 230 228 223 222 227 232 237 246 246 242 239 232 229 231 228 227 226 223 224 224 224 224 224 225 225 225 225 225 227 228 228 230 231 233 235 237 239 240 240 242 244 246 247 249 252 253 254 254 255 255 255 255 256 255 255 254 254 254 254 254 254 253 254 256 257 257 255 252 249 249
177 185 186 187 189 170 186 212 188 132 203 194 209 259 261 236 184 191 200 219 233 240 251 247 229 228 234 234 230 221 215 224 225 224 235 240 242 245 240 237 233 228 227 224 222 223 223 224 225 225 225 225 226 227 227 228 229 230 231 233 235 236 237 238 238 239 241 243 246 248 249 250 251 253 253 252 253 254 254 254 253 253 254 255 256 255 255 255 255 257 257 259 262 261 260 259 258